Погода в Вильнюсе

Поиск расширенной информации на нашем сайте:

Полезная информация:

Новости сайта



02.01.2020
Опубликован Долгосрочный прогноз погоды по городам России и ближнего зарубежья на январь 2020 года.
Карты: Прогноз на январь и февраль 2020 года, Сравнение прогнозируемой аномалии приземной температуры воздуха на январь 2020 года по разным моделям.




Погода в Вильнюсе - сегодня

Время (UTC), дата Ветер
(°,м/с) 
Видим.   Явления Облачность Т
(°С)
Тd
(°С)
f(%) Тe
(°С)
Pmin
(гПа)
dP
(гПа)
Po
(мм)
O2
(г/м3)
Тmin Tmax R s Состояние
почвы
09 16.01.21 140 (ЮВ) 1-1{02}  1100 м  слаб. снег  10/0 средняя 
[As op]
-17.4 -19.5 84 -18  1015.4  0.2  746  323           
12 16.01.21 170 (Ю) 1-1{02}  5000 м  дымка{снег}  8/8 300 м 
[St]
-15.3 -18.1 79 -15  1014.9  -0.3  746  320      0.2  18   
15 16.01.21 090 (В) 2-3{05}  15000 м  {снег}  ясно <0100 м 
-17.2 -19.9 80 -20  1016.5  1.4  747  323           
18 16.01.21 080 (В) 1-2{04}  6000 м  дымка{снег}  1/0 верхняя 
[Ci fib]
-18.8 -20.9 83 -19  1018.3  1.6  748  325    -14  0.2  18   
21 16.01.21 290 (З) 1-2{04}  3700 м  дымка  ясно <0100 м 
-20.8 -22.9 83 -21  1019.7  1.2  749  328           
00 17.01.21 310 (СЗ) 1-2{04}  8000 м  дымка  ясно 
-21.3 -23.5 82 -22  1019.6  -0.1  749  329        18   
03 17.01.21 320 (СЗ) 1-2{03}  9000 м  дымка  ясно 
-22 -24.3 81 -22  1019.9  0.2  749  330           
06 17.01.21 320 (СЗ) 2-3{03}  11000 м    1/0 средняя 
[Ac trans]
-22.4 -24.7 82 -25  1020.8  0.9  750  331  -22.4      18  равномерный
сухой снег
100% 
09 17.01.21 320 (СЗ) 2-4{04}  8000 м  дымка{снег}  6/5 120 м средняя, верхняя 
[St|Ac trans|Cs]
-21 -23.4 81 -24  1021.8  750  329           
12 17.01.21 310 (СЗ) 1-2{04}  10 км  {снег}  3/0 средняя, верхняя 
[Ac trans|Ci fib]
-17 -19.8 79 -17  1021.5  0.1  750  324      0.1  18   
15 17.01.21 320 (СЗ) 2-3{04}  7000 м  дымка  3/3 400 м 
[St]
-18.1 -20.1 84 -21  1022.2  0.6  751  326           
18 17.01.21 330 (СЗ) 1-2{04}  4400 м  слаб. снег  10/10 330 м 
[Ns]
-18.9 -20.9 84 -19  1022.9  0.6  751  327    -16.6  0.1  18   
21 17.01.21 310 (СЗ) 2-2{03}  7000 м  дымка{снег}  ясно <0100 м 
-20.3 -22.4 83 -23  1022.9  0.1  751  329           
00 18.01.21 310 (СЗ) 2-3{04}  8000 м  дымка{снег}  9/0 средняя 
[Ac trans]
-20.4 -22.5 83 -23  1022.9  751  329      0.0  18   
03 18.01.21 320 (СЗ) 1-2{03}  4800 м  слаб. снег  10/10 540 м 
[Ns]
-18.6 -20.7 83 -19  1023  0.3  751  326           
06 18.01.21 220 (ЮЗ) 1-1{02}  6000 м  слаб. снег  10/10 330 м 
[Ns]
-18.5 -20.6 83 -19  1022.7  -0.4  751  326  -21.2    0.0  18  равномерный
сухой снег
100% 
09 18.01.21 150 (ЮВ) 1-2{02}  7000 м  слаб. снег  10/10 570 м 
[Ns]
-16.7 -18.8 84 -17  1022.9  0.4  751  324           
12 18.01.21 180 (Ю) 1-1{02}  6000 м  дымка{снег}  9/0 средняя 
[Ac As]
-13.8 -16 83 -14  1021.7  -1  751  320      0.0  17   
15 18.01.21 160 (Ю) 1-2{03}  6000 м  слаб. снег  10/0 средняя 
[As op]
-13.2 -15.1 86 -13  1021.7  0.1  751  319           
18 18.01.21 170 (Ю) 2-2{03}  7000 м  слаб. снег  10/0 средняя 
[As op]
-13.5 -15.4 86 -16  1021.3  -0.4  750  319    -13.1  0.0  16   
21 18.01.21 180 (Ю) 3-4{04}  10 км  в посл. час снег  10/0 средняя 
[As op]
-13.5 -15.4 86 -17  1021.3  750  319           
00 19.01.21 170 (Ю) 2-4{04}  11000 м  в посл. час снег  10/10 2000 м 
[Sc]
-13.5 -15.4 86 -16  1020.3  -1  750  319      0.0  16   
03 19.01.21 180 (Ю) 2-3{04}  9000 м  дымка  10/0 средняя 
[As op]
-13.6 -15.5 86 -16  1019.7  -0.6  749  319           
06 19.01.21 150 (ЮВ) 3-4{04}  7000 м  дымка  10/0 средняя 
[As op]
-14 -15.9 85 -18  1019.8  0.1  749  320  -14.1    0.0  16  равномерный
сухой снег
100% 
09 19.01.21 150 (ЮВ) 3-4{04}  7000 м  дымка  9/8 2000 м средняя 
[Sc|As trans]
-12.6 -15.2 81 -16  1019.4  -0.3  749  318           
Время (UTC), дата Ветер
(°,м/с) 
Видим.   Явления Облачность Т
(°С)
Тd
(°С)
f(%) Тe
(°С)
Pmin
(гПа)
dP
(гПа)
Po
(мм)
O2
(г/м3)
Тmin Tmax R s Состояние
почвы

Для получения пояснительной информации подведите курсор к названию столбца.

ПОГОДА в Вильнюсе - архив

Всё, что Вы хотите узнать о погоде в Вильнюсе - удобно и подробно!

Выберите нужную дату (начиная с 1 января 2019* года) и нажмите кнопку "Найти".
Будут отображены архивные сводки погоды по пункту Вильнюс, начиная с указанной даты.


Отображать данные в формате CSV (для использования в таблицах Excel)


Внимание! Наш архив погоды предназначен исключительно для личного некоммерческого использования в познавательных целях. Если Вам необходимы официальные справки о состоянии погоды (для производственных, юридических, коммерческих и т.п. целей), обращайтесь в органы Росгидромета.

*Примечание: данная дата относится к архиву по метеостанциям СССР (Россия, СНГ, Балтия).
Архив по метеостанциям Зарубежной Европы и Азии (кроме Китая) хранится 10 дней, по другим регионам земного шара (Китай, Африка, Америка, Австралия, Океания) - 1 день.

Вильнюс - район местоположения метеостанции


Название, широта, долгота, высота метеостанции:
Вильнюс 54.6°ш. 25.1°д. 156 м над ур. моря [Литва]

Дополнительная информация

В oтличие oт бoльшинства пoгoдных сайтoв мы публикуем пoдрoбную метеoинфoрмацию в детальнoм прoфессиoнальнoм фoрмате.

Характеристики температуры и влажнoсти вoздуха измеряются на высoте 2 м в тени вдали oт зданий и деревьев.
Скoрoсть ветра измеряется на высoте 10 м (на урoвне рoста челoвека скoрoсть ветра ниже в 1.5-2 раза). Если метеoстанция нахoдится в гoрoде или в лесу, тo скoрoсть ветра занижена на 2-4 м/с пo сравнению с oткрытым местoм. Скoрoсть ветра над акватoриями крупных рек и oзёр, а также на вершинах хoлмoв на 2-5 м/с выше, чем в oбычных услoвиях.
Атмoсфернoе давление в разных тoчках местнoсти мoжет значительнo oтличаться oт давления на метеoстанции, в зависимoсти oт услoвий рельефа (при пoдъёме на 10 м давление пoнижается примернo на 1 мм рт.ст.).